Fort Bridger AP, Fort Bridger, WY

1:29 AM MDT on March 23, 2017 (GMT -0600)
Fort Bridger

Weather History for KFBR - January, 2014

Change the Weather History Date:

Saturday, January 11, 2014

  Actual Average (KEMM) Record (KEMM)
Temperature  
Mean Temperature 38 °F -  
Max Temperature 45 °F 30 °F 55 °F (1953)
Min Temperature 32 °F 7 °F -22 °F (1963)
Degree Days  
Heating Degree Days 26    
Moisture  
Dew Point 29 °F    
Average Humidity 71    
Maximum Humidity 92    
Minimum Humidity 50    
Precipitation  
Precipitation 0.00 in - - ()
Sea Level Pressure  
Sea Level Pressure 29.98 in    
Wind  
Wind Speed 23 mph (WSW)    
Max Wind Speed 40 mph    
Max Gust Speed 61 mph    
Visibility 10 miles    
Events Snow    
Averages and records for this station are not official NWS values.
T = Trace of Precipitation, MM = Missing Value Source: NWS Daily Summary

Daily Weather History Graph

Daily Weather History Graph

Search for Another Location

Airport or City:

Trip Planner

Search our weather history database for the weather conditions in past years. The results will help you decide how hot, cold, wet, or windy it might be!

Date:

Astronomy

Jan. 11, 2014 Rise Set
Actual Time 7:46 AM MST 5:12 PM MST
Civil Twilight 7:16 AM MST 5:43 PM MST
Nautical Twilight 6:41 AM MST 6:17 PM MST
Astronomical Twilight 6:08 AM MST 6:51 PM MST
Moon 1:59 PM MST (1/11) 3:54 AM MST (1/11)
Length of Visible Light 10h 27m
Length of Day
9h 25m
Waxing Gibbous, 83% of the Moon is Illuminated
Jan 11
Waxing Gibbous
Jan 15
Full
Jan 23
Last Quarter
Jan 30
New
Feb 6
First Quarter

Hourly Weather History & Observations

Time (MST) Temp. Windchill Dew Point Humidity Pressure Visibility Wind Dir Wind Speed Gust Speed Precip Events Conditions
12:15 AM 32.9 °F 18.4 °F 27.5 °F 81% 30.10 in 10.0 mi West 32.2 mph 39.1 mph N/A   Overcast
12:35 AM 32.7 °F 18.8 °F 27.5 °F 81% 30.10 in 10.0 mi West 28.8 mph 34.5 mph N/A   Overcast
12:55 AM 32.9 °F 19.3 °F 27.5 °F 81% 30.11 in 10.0 mi West 27.6 mph 35.7 mph N/A   Overcast
1:15 AM 33.1 °F 20.1 °F 27.5 °F 80% 30.10 in 10.0 mi West 25.3 mph 34.5 mph N/A   Overcast
1:35 AM 33.3 °F 20.9 °F 27.5 °F 79% 30.11 in 10.0 mi WSW 23.0 mph 31.1 mph N/A   Overcast
1:55 AM 33.4 °F 20.6 °F 28.0 °F 81% 30.10 in 10.0 mi West 25.3 mph 31.1 mph N/A   Overcast
2:15 AM 33.3 °F 21.5 °F 28.2 °F 82% 30.11 in 10.0 mi West 20.7 mph 27.6 mph N/A   Overcast
2:35 AM 33.1 °F 20.6 °F 28.0 °F 82% 30.11 in 10.0 mi West 23.0 mph 33.4 mph N/A   Overcast
2:55 AM 33.3 °F 21.2 °F 28.4 °F 82% 30.11 in 10.0 mi West 21.9 mph 28.8 mph N/A   Overcast
3:15 AM 33.4 °F 20.8 °F 28.8 °F 83% 30.11 in 10.0 mi West 24.2 mph 29.9 mph N/A   Overcast
3:35 AM 33.4 °F 22.3 °F 28.9 °F 84% 30.12 in 10.0 mi West 18.4 mph 27.6 mph N/A   Overcast
3:55 AM 33.8 °F 23.2 °F 29.3 °F 84% 30.14 in 10.0 mi West 17.3 mph 26.5 mph N/A   Overcast
4:15 AM 34.0 °F 22.1 °F 29.3 °F 83% 30.14 in 10.0 mi West 21.9 mph 26.5 mph N/A   Overcast
4:35 AM 34.0 °F 23.8 °F 29.3 °F 83% 30.14 in 10.0 mi West 16.1 mph 24.2 mph N/A   Overcast
4:55 AM 34.0 °F 23.8 °F 28.9 °F 82% 30.13 in 10.0 mi West 16.1 mph 28.8 mph N/A   Overcast
5:15 AM 34.2 °F 23.6 °F 28.4 °F 79% 30.13 in 10.0 mi WSW 17.3 mph 21.9 mph N/A   Overcast
5:35 AM 34.2 °F 24.0 °F 28.4 °F 79% 30.13 in 10.0 mi SW 16.1 mph 21.9 mph N/A   Overcast
5:55 AM 33.6 °F 21.6 °F 27.9 °F 79% 30.12 in 10.0 mi SW 21.9 mph 27.6 mph N/A   Overcast
6:15 AM 33.8 °F 22.2 °F 28.2 °F 80% 30.12 in 10.0 mi SW 20.7 mph 26.5 mph N/A   Overcast
6:35 AM 33.3 °F 22.5 °F 28.2 °F 82% 30.12 in 10.0 mi SW 17.3 mph - N/A   Overcast
6:55 AM 32.5 °F 20.2 °F 27.9 °F 83% 30.11 in 10.0 mi SW 21.9 mph 26.5 mph N/A   Mostly Cloudy
7:15 AM 33.3 °F 20.6 °F 28.2 °F 82% 30.12 in 10.0 mi SW 24.2 mph 27.6 mph N/A   Scattered Clouds
7:35 AM 34.2 °F 23.0 °F 28.4 °F 79% 30.12 in 10.0 mi SW 19.6 mph 31.1 mph N/A   Scattered Clouds
7:55 AM 34.3 °F 25.0 °F 29.1 °F 81% 30.12 in 10.0 mi SW 13.8 mph - N/A   Overcast
8:15 AM 34.9 °F 25.7 °F 28.9 °F 79% 30.11 in 10.0 mi SW 13.8 mph - N/A   Overcast
8:35 AM 34.7 °F 24.3 °F 28.4 °F 78% 30.10 in 10.0 mi WSW 17.3 mph 24.2 mph N/A   Mostly Cloudy
8:55 AM 35.6 °F 24.5 °F 28.6 °F 76% 30.11 in 10.0 mi WSW 20.7 mph 26.5 mph N/A   Mostly Cloudy
9:15 AM 36.9 °F 27.1 °F 29.1 °F 74% 30.12 in 10.0 mi WSW 17.3 mph 20.7 mph N/A   Scattered Clouds
9:35 AM 38.5 °F 29.9 °F 29.3 °F 70% 30.12 in 10.0 mi West 15.0 mph 26.5 mph N/A   Mostly Cloudy
9:55 AM 38.8 °F 33.8 °F 29.1 °F 68% 30.12 in 10.0 mi WSW 6.9 mph 18.4 mph N/A   Mostly Cloudy
10:15 AM 39.7 °F 30.6 °F 29.7 °F 67% 30.11 in 10.0 mi WSW 18.4 mph 23.0 mph N/A   Scattered Clouds
10:35 AM 39.7 °F 30.9 °F 29.3 °F 66% 30.10 in 10.0 mi WSW 17.3 mph 21.9 mph N/A   Clear
10:55 AM 40.6 °F 32.7 °F 29.3 °F 64% 30.10 in 10.0 mi WSW 15.0 mph 19.6 mph N/A   Clear
11:15 AM 40.6 °F 34.8 °F 29.1 °F 64% 30.08 in 10.0 mi WSW 9.2 mph - N/A   Clear
11:35 AM 41.0 °F 35.8 °F 29.8 °F 64% 30.06 in 10.0 mi West 8.1 mph - N/A   Clear
11:55 AM 42.4 °F 35.7 °F 29.8 °F 61% 30.04 in 10.0 mi West 12.7 mph 18.4 mph N/A   Clear
12:15 PM 42.8 °F 34.3 °F 29.3 °F 59% 30.01 in 10.0 mi WSW 19.6 mph 25.3 mph N/A   Clear
12:35 PM 41.9 °F 34.0 °F 29.3 °F 61% 29.98 in 10.0 mi WSW 16.1 mph 20.7 mph N/A   Clear
12:55 PM 43.3 °F 34.5 °F 29.3 °F 58% 29.96 in 10.0 mi WSW 21.9 mph 29.9 mph N/A   Clear
1:10 PM 44.4 °F 36.9 °F 30.0 °F 57% 29.95 in 10.0 mi WSW 17.3 mph 26.5 mph N/A   Clear
1:55 PM 45.3 °F 36.1 °F 29.5 °F 54% 29.92 in 10.0 mi WSW 27.6 mph 34.5 mph N/A   Clear
2:15 PM 45.0 °F 36.0 °F 29.5 °F 55% 29.91 in 10.0 mi West 25.3 mph 33.4 mph N/A   Clear
2:35 PM 45.0 °F 35.6 °F 28.9 °F 53% 29.91 in 10.0 mi West 27.6 mph 41.4 mph N/A   Clear
2:55 PM 44.4 °F 35.3 °F 29.3 °F 55% 29.90 in 10.0 mi WSW 25.3 mph 36.8 mph N/A   Clear
3:15 PM 44.2 °F 35.4 °F 29.1 °F 55% 29.88 in 10.0 mi WSW 23.0 mph 31.1 mph N/A   Clear
3:35 PM 43.2 °F 33.2 °F 28.9 °F 57% 29.86 in 10.0 mi WSW 27.6 mph 39.1 mph N/A   Clear
3:55 PM 43.3 °F 33.0 °F 28.4 °F 56% 29.85 in 10.0 mi WSW 29.9 mph 36.8 mph N/A   Clear
4:15 PM 42.3 °F 31.9 °F 28.9 °F 59% 29.85 in 10.0 mi WSW 27.6 mph 33.4 mph N/A   Clear
4:35 PM 42.4 °F 32.4 °F 28.4 °F 58% 29.84 in 10.0 mi WSW 26.5 mph 38.0 mph N/A   Mostly Cloudy
4:55 PM 41.2 °F 31.4 °F 28.9 °F 62% 29.84 in 10.0 mi WSW 23.0 mph 31.1 mph N/A   Overcast
5:15 PM 41.9 °F 31.9 °F 27.5 °F 57% 29.84 in 10.0 mi WSW 25.3 mph 38.0 mph N/A   Overcast
5:35 PM 43.2 °F 31.8 °F 26.2 °F 51% 29.84 in 10.0 mi WSW 36.8 mph 48.3 mph N/A   Overcast
5:55 PM 43.7 °F 33.2 °F 25.9 °F 50% 29.84 in 10.0 mi WSW 32.2 mph 49.5 mph N/A   Overcast
6:15 PM 42.4 °F 31.6 °F 27.0 °F 54% 29.83 in 10.0 mi WSW 31.1 mph 39.1 mph N/A   Overcast
6:35 PM 41.2 °F 31.4 °F 28.8 °F 61% 29.83 in 10.0 mi WSW 23.0 mph 32.2 mph N/A   Overcast
6:55 PM 40.3 °F 29.7 °F 29.3 °F 65% 29.83 in 10.0 mi WSW 25.3 mph 33.4 mph N/A   Mostly Cloudy
7:15 PM 41.2 °F 28.7 °F 28.0 °F 60% 29.85 in 10.0 mi WSW 39.1 mph 48.3 mph N/A   Scattered Clouds
7:35 PM 40.3 °F 29.5 °F 29.1 °F 64% 29.82 in 10.0 mi WSW 26.5 mph 41.4 mph N/A   Scattered Clouds
7:55 PM 40.3 °F 28.9 °F 29.8 °F 66% 29.81 in 10.0 mi SW 29.9 mph 42.6 mph N/A   Mostly Cloudy
8:15 PM 39.2 °F 27.4 °F 30.4 °F 71% 29.80 in 10.0 mi SW 29.9 mph 41.4 mph N/A   Scattered Clouds
8:35 PM 39.0 °F 29.9 °F 30.6 °F 72% 29.80 in 10.0 mi WSW 17.3 mph 26.5 mph N/A   Mostly Cloudy
8:55 PM 38.7 °F 29.1 °F 30.6 °F 73% 29.79 in 10.0 mi WSW 18.4 mph 24.2 mph N/A   Overcast
9:15 PM 38.8 °F 28.0 °F 30.9 °F 73% 29.79 in 10.0 mi WSW 24.2 mph 35.7 mph N/A   Overcast
9:35 PM 38.1 °F 28.4 °F 30.9 °F 75% 29.78 in 10.0 mi WSW 18.4 mph 31.1 mph N/A   Overcast
9:55 PM 38.5 °F 28.3 °F 30.9 °F 74% 29.77 in 10.0 mi WSW 20.7 mph 35.7 mph N/A   Mostly Cloudy
10:15 PM 39.2 °F 28.3 °F 30.7 °F 72% 29.76 in 10.0 mi WSW 25.3 mph 44.9 mph N/A   Overcast
10:35 PM 39.4 °F 27.9 °F 29.8 °F 69% 29.76 in 10.0 mi West 28.8 mph 40.3 mph N/A   Overcast
10:55 PM 38.3 °F 29.7 °F 30.2 °F 73% 29.75 in 10.0 mi West 15.0 mph - N/A   Overcast
11:15 PM 36.7 °F 22.5 °F 32.0 °F 83% 29.77 in 2.5 mi West 39.1 mph 61.0 mph N/A Snow Light Snow
11:35 PM 35.2 °F 20.3 °F 32.4 °F 89% 29.77 in 1.2 mi West 40.3 mph 50.6 mph N/A Snow Light Snow
11:55 PM 34.2 °F 19.7 °F 32.0 °F 92% 29.78 in 2.5 mi NW 34.5 mph 41.4 mph N/A Snow Light Snow